Location: Ciserano
(45.5833°N, 9.6000°E)
Time: 05:25:31
(UTC+00:00)

RESURS DK-1 - Pass Details

Date: 29 November 2020
Orbit: 557 x 560 km, 69.9° (Epoch: 24 January)

Event Time Altitude Azimuth Distance (km) Brightness Sun altitude
Rises 06:04:29 0° 250° (WSW) 2,743 5.4 -6.3°
Reaches altitude 10° 06:07:19 10° 271° (W) 1,852 4.4 -5.8°
Maximum altitude 06:10:05 17° 313° (NW) 1,451 3.9 -5.4°
Drops below altitude 10° 06:12:52 10° 355° (N) 1,860 4.7 -4.9°
Sets 06:15:45 0° 16° (NNE) 2,760 5.8 -4.5°
